This demonstration page uses our WeatherBlox Daily Observations layout. Learn more.

Left ArrowRight Arrow

39.01783, -85.05884

Hourly Observations for December 8, 2016

Temp ( °F °C ) Dew Point ( °F °C ) Humidity (%) Winds ( mph kmh ) Pressure ( in mb ) Visibility ( mi km ) Precip ( " mm )
12:52 am 00:52 Mostly Cloudy 31 -0.6 21 -6.1 67 67 WNW 16 26 30.18 1022 10 16 N/A
1:52 am 01:52 Mostly Cloudy 30 -1.1 21 -6.1 69 69 WNW 12 19 30.18 1022 10 16 N/A
2:52 am 02:52 Cloudy 29 -1.7 21 -6.1 72 72 W 9 15 30.19 1022 10 16 N/A
3:52 am 03:52 Cloudy 29 -1.7 22 -5.6 75 75 W 12 19 30.20 1023 10 16 N/A
4:52 am 04:52 Mostly Cloudy 28 -2.2 20 -6.7 72 72 W 13 20 30.20 1023 10 16 N/A
5:52 am 05:52 Mostly Cloudy 27 -2.8 20 -6.7 75 75 W 10 17 30.22 1024 10 16 N/A
6:25 am 06:25 Partly Cloudy 26 -3.3 18 -7.8 71 71 W 9 15 30.27 1025 10 16 N/A
6:52 am 06:52 Mostly Clear 26 -3.3 16 -8.9 66 66 W 13 20 30.24 1024 10 16 N/A
7:52 am 07:52 Mostly Sunny 25 -3.9 16 -8.9 69 69 W 15 24 30.26 1025 10 16 N/A
8:52 am 08:52 Partly Cloudy 25 -3.9 17 -8.3 72 72 W 16 26 30.27 1025 10 16 N/A
9:52 am 09:52 Mostly Sunny 26 -3.3 13 -10.6 57 57 WNW 17 28 30.29 1026 10 16 N/A
10:52 am 10:52 Mostly Sunny 29 -1.7 14 -10 54 54 W 21 33 30.30 1026 10 16 N/A
11:52 am 11:52 Mostly Sunny 30 -1.1 14 -10 51 51 W 16 26 30.30 1026 10 16 N/A
12:52 pm 12:52 Mostly Sunny 32 undefined 15 -9.4 50 50 W 17 28 30.29 1026 10 16 N/A
1:52 pm 13:52 Partly Cloudy 32 undefined 16 -8.9 52 52 WNW 20 31 30.29 1026 10 16 N/A
2:52 pm 14:52 Partly Cloudy 32 undefined 16 -8.9 52 52 W 18 30 30.31 1026 10 16 N/A
3:52 pm 15:52 Mostly Sunny 29 -1.7 17 -8.3 61 61 WNW 14 22 30.33 1027 10 16 N/A
4:52 pm 16:52 Partly Cloudy 26 -3.3 15 -9.4 63 63 NW 15 24 30.36 1028 10 16 N/A
5:52 pm 17:52 Partly Cloudy 24 -4.4 14 -10 65 65 WNW 15 24 30.40 1029 10 16 N/A
6:52 pm 18:52 Cloudy with Light Snow 24 -4.4 13 -10.6 62 62 WNW 13 20 30.41 1030 9 14 N/A
7:07 pm 19:07 Cloudy with Light Snow 25 -4 14 -10 63 63 WNW 14 22 30.48 1032 9 14 N/A
7:52 pm 19:52 Cloudy with Light Snow 24 -4.4 14 -10 65 65 WNW 14 22 30.42 1030 9 14 N/A
8:20 pm 20:20 Cloudy with Light Snow 25 -4 12 -11 59 59 WNW 15 24 30.48 1032 9 14 N/A
8:52 pm 20:52 Cloudy with Light Snow 23 -5 13 -10.6 65 65 WNW 16 26 30.43 1031 9 14 N/A
9:04 pm 21:04 Cloudy with Light Snow 23 -5 12 -11 63 63 WNW 14 22 30.50 1033 9 14 N/A
9:52 pm 21:52 Cloudy with Light Snow 23 -5 13 -10.6 65 65 WNW 16 26 30.44 1031 9 14 N/A
10:27 pm 22:27 Cloudy with Light Snow 23 -5 14 -10 68 68 WNW 15 24 30.50 1033 9 14 N/A
10:52 pm 22:52 Cloudy with Light Snow 23 -5 14 -10 68 68 WNW 12 19 30.45 1031 9 14 N/A
11:52 pm 23:52 Cloudy with Light Snow 23 -5 15 -9.4 72 72 WNW 12 19 30.46 1032 7 11 N/A

Powered by AerisWeather